Regional Weather Roundup
Issued by NWS

Home | Current Version | Previous Version | Text Only | Print | Product List | Glossary Off
Versions: 1 2 3 4 5 6 7 8 9 10 11 12 13 14 15 16 17 18 19 20 21 22 23 24 25 26 27 28 29 30 31 32 33 34 35 36 37 38 39 40 41 42 43 44 45 46 47 48 49 50

000
ASUS43 KDMX 261301
RWRIA

WEATHER ROUNDUP FOR IOWA
NATIONAL WEATHER SERVICE DES MOINES IA
800 AM CDT FRI MAY 26 2017

NOTE: "FAIR" INDICATES FEW OR NO CLOUDS BELOW 12,000 FEET WITH NO
SIGNIFICANT WEATHER AND/OR OBSTRUCTIONS TO VISIBILITY.

* - THESE STATIONS ARE NOT NWS STATIONS...THUS NOT UNDER NWS
QUALITY CONTROL.  THEY ALSO DO NOT REPORT WEATHER SUCH
AS PRECIPITATION OR FOG.

IAZ001>003-012>014-020>022-031>034-043>046-261400-
   NORTHWEST IOWA

CITY           SKY/WX    TMP DP  RH WIND       PRES   REMARKS
CARROLL *      CLOUDY    61  57  88 SE3       29.73R
CHEROKEE *     CLOUDY    60  57  89 CALM      29.72S
DENISON *      CLOUDY    59  57  94 E3        29.73S
LE MARS *      CLOUDY    61  55  82 CALM      29.74R
ORANGE CITY *  PTSUNNY   61  55  82 W3        29.74R
SHELDON *      CLOUDY    61  55  82 CALM      29.72R
SIOUX CITY     PTSUNNY   61  54  77 NW18      29.74R
SPENCER        PTSUNNY   60  54  80 CALM      29.73R
STORM LAKE *   CLOUDY    59  54  82 S6        29.73R
$$

IAZ055>058-069>071-079>083-090>094-261400-
   SOUTHWEST IOWA

CITY           SKY/WX    TMP DP  RH WIND       PRES   REMARKS
ATLANTIC *     CLOUDY    61  57  88 CALM      29.72R
AUDUBON *      CLOUDY    59  55  88 CALM      29.74R
CLARINDA *     PTSUNNY   61  59  94 CALM      29.73S
COUNCIL BLFS * CLOUDY    61  61 100 NW3       29.72R
CRESTON *      CLOUDY    59  57  94 NE3       29.74R
HARLAN  *      CLOUDY    61  59  94 NE5       29.75S
LAMONI         CLOUDY    60  59  96 N7        29.71S
RED OAK *      CLOUDY    61  57  88 MISG      29.70F
SHENANDOAH *   MOSUNNY   63  59  88 CALM      29.72R
$$

IAZ047>049-059>061-072>074-084-261400-
   CENTRAL IOWA

CITY           SKY/WX    TMP DP  RH WIND       PRES   REMARKS
AMES           CLOUDY    60  55  83 CALM      29.72R
ANKENY *       CLOUDY    59  54  82 CALM      29.73R
BOONE *        CLOUDY    61  57  88 SE6       29.72R
CHARITON *     LGT RAIN  57  55  94 CALM      29.73R
DES MOINES     LGT RAIN  60  55  83 SE7       29.72R
GRINNELL*      CLOUDY    60  53  77 E7        29.73R
KNOXVILLE *    CLOUDY    59  54  82 E5        29.70R
MARSHALLTOWN   CLOUDY    60  54  80 E8        29.71F
NEWTON *       CLOUDY    61  54  77 SE7       29.71R
PELLA *        DRIZZLE   58  54  86 CALM      29.72S
PERRY *        CLOUDY    60  56  84 SE3       29.73R
$$

IAZ004>006-015-016-023>025-035-036-261400-
   NORTH CENTRAL IOWA

CITY           SKY/WX    TMP DP  RH WIND       PRES   REMARKS
ALGONA *       CLOUDY    59  54  82 SE10      29.73R
CLARION *      CLOUDY    61  55  82 SE13      29.73R
ESTHERVILLE    CLOUDY    58  55  90 SW5       29.72R
FORT DODGE *   CLOUDY    59  52  77 S6        29.75R
MASON CITY     PTSUNNY   59  53  80 SE12      29.75R
FOREST CITY *  PTSUNNY   59  48  67 SE6       29.74R
WEBSTER CITY * CLOUDY    59  54  82 SE7       29.72R
IOWA FALLS *   CLOUDY    61  54  79 SE3       29.74R
$$

IAZ007>011-017>019-026>030-037>042-050>054-066-261400-
   NORTHEAST IOWA

CITY           SKY/WX    TMP DP  RH WIND       PRES   REMARKS
CEDAR RAPIDS   CLOUDY    62  56  80 E13       29.72F
CHARLES CITY * CLOUDY    61  55  82 SE9       29.75R
CLINTON *      CLOUDY    62  57  83 SE9       29.79F
DECORAH *      MOSUNNY   61  55  82 S8        29.76R
DUBUQUE        CLOUDY    60  56  86 SE8       29.78S
MONTICELLO *   PTSUNNY   63  55  77 SE9       29.76F
OELWEIN *      CLOUDY    61  55  82 SE12      29.77R
WATERLOO       CLOUDY    62  53  72 SE6       29.73S
$$

IAZ064-065-067-068-078-261400-
   EAST CENTRAL IOWA

CITY           SKY/WX    TMP DP  RH WIND       PRES   REMARKS
DAVENPORT      CLOUDY    64  55  72 SE14      29.78F
IOWA CITY      CLOUDY    63  54  72 E9        29.73F
MT. PLEASANT * CLOUDY    60  53  78 SE12      29.69F
MUSCATINE *    CLOUDY    64  54  68 E9G18     29.72F
QUAD CITIES    CLOUDY    65  55  70 SE9       29.77F
$$

IAZ062-063-075>077-085>089-095>099-261400-
   SOUTHEAST IOWA

CITY           SKY/WX    TMP DP  RH WIND       PRES   REMARKS
BURLINGTON     LGT RAIN  60  56  86 E24G32    29.65F
FAIRFIELD *    CLOUDY    59  55  88 SE5       29.71R
FORT MADISON * CLOUDY    63  55  77 E10G20    29.65F
KEOKUK *       CLOUDY    61  57  88 CALM      29.66F
OSKALOOSA *      N/A     60  55  84 E9        29.71R
OTTUMWA        CLOUDY    62  57  83 E9        29.69S
WASHINGTON *   CLOUDY    61  55  82 SE13G18   29.71S
$$

ABBREVIATIONS USED IN REMARKS
   TC - TEMPERATURES IN CELSIUS
  WCI - WIND CHILL INDEX
   HX - HEAT INDEX
  VSB - VISIBILITY
$$





USA.gov is the U.S. government's official web portal to all federal, state and local government web resources and services.